Voltar ao catálogo

STARLINK-31843

AtivoComunicaçõesVLEO
NORAD 59722·PAYLOAD·🇺🇸 United States

Lançado May 10, 2024 de Vandenberg Space Force Base

Loading…

Próximas Passagens (próximas 24 horas)

TLE

AtualizadoSource: CelesTrak SupGP

Época: Sep 14, 2026, 22:35 UTC

1 59722C 24088Q   26257.94145833 -.00009751  00000+0 -31360-3 0  2572
2 59722  53.1607 339.9506 0001194  77.6678 159.1518 15.31702163    10

Acompanhe STARLINK-31843 em tempo real com AllMySat

Download on the App Store